| time (UTC) | temp C | wind direction | speed KPH | gust KPH | rain 1hr cm | rain 24hr cm | rain mn cm | humidity % | barometer mb |
| 20260906205030 | 28 | 25 | 0.0 | 3.2 | 0.00 | 0.00 | 0.00 | 39 | 1018.8 |
| 20260906203530 | 28 | 44 | 0.0 | 3.2 | 0.00 | 0.00 | 0.00 | 38 | 1018.8 |
| 20260906200530 | 29 | 23 | 0.0 | 1.6 | 0.00 | 0.00 | 0.00 | 36 | 1018.7 |
| 20260906195032 | 30 | 63 | 0.0 | 0.0 | 0.00 | 0.00 | 0.00 | 35 | 1018.7 |
| 20260906193530 | 30 | 80 | 0.0 | 1.6 | 0.00 | 0.00 | 0.00 | 34 | 1018.5 |
| 20260906192032 | 30 | 34 | 1.6 | 3.2 | 0.00 | 0.00 | 0.00 | 34 | 1018.4 |
| 20260906190530 | 30 | 3 | 0.0 | 4.8 | 0.00 | 0.00 | 0.00 | 34 | 1018.5 |
| 20260906185032 | 30 | 7 | 0.0 | 8.0 | 0.00 | 0.00 | 0.00 | 35 | 1018.4 |
| 20260906183529 | 30 | 14 | 0.0 | 4.8 | 0.00 | 0.00 | 0.00 | 36 | 1018.3 |
| 20260906182035 | 31 | 72 | 0.0 | 3.2 | 0.00 | 0.00 | 0.00 | 35 | 1018.1 |
| 20260906180529 | 31 | 48 | 0.0 | 4.8 | 0.00 | 0.00 | 0.00 | 36 | 1018.0 |
| 20260906175031 | 31 | 62 | 0.0 | 0.0 | 0.00 | 0.00 | 0.00 | 37 | 1017.8 |
| 20260906173533 | 31 | 164 | 0.0 | 0.0 | 0.00 | 0.00 | 0.00 | 42 | 1017.4 |
| 20260906172031 | 31 | 353 | 0.0 | 3.2 | 0.00 | 0.00 | 0.00 | 43 | 1017.2 |
| 20260906170526 | 31 | 0 | 0.0 | 1.6 | 0.00 | 0.00 | 0.00 | 42 | 1017.1 |
| 20260906165029 | 32 | 350 | 0.0 | 4.8 | 0.00 | 0.00 | 0.00 | 42 | 1017.0 |
| 20260906163528 | 32 | 272 | 0.0 | 4.8 | 0.00 | 0.00 | 0.00 | 41 | 1016.8 |
| 20260906162033 | 32 | 330 | 0.0 | 8.0 | 0.00 | 0.00 | 0.00 | 38 | 1016.9 |
| 20260906155027 | 33 | 334 | 0.0 | 3.2 | 0.00 | 0.00 | 0.00 | 36 | 1016.8 |
| 20260906153524 | 33 | 226 | 1.6 | 6.4 | 0.00 | 0.00 | 0.00 | 36 | 1016.7 |
| 20260906152027 | 33 | 178 | 1.6 | 8.0 | 0.00 | 0.00 | 0.00 | 35 | 1016.6 |
| 20260906150526 | 33 | 237 | 3.2 | 4.8 | 0.00 | 0.00 | 0.00 | 34 | 1016.6 |
| 20260906145024 | 33 | 244 | 1.6 | 8.0 | 0.00 | 0.00 | 0.00 | 33 | 1016.6 |
| 20260906143525 | 33 | 138 | 1.6 | 11.3 | 0.00 | 0.00 | 0.00 | 34 | 1016.6 |
| 20260906142026 | 33 | 175 | 1.6 | 9.7 | 0.00 | 0.00 | 0.00 | 34 | 1016.7 |
| 20260906140528 | 34 | 254 | 4.8 | 9.7 | 0.00 | 0.00 | 0.00 | 33 | 1016.7 |
| 20260906135025 | 34 | 247 | 1.6 | 9.7 | 0.00 | 0.00 | 0.00 | 32 | 1016.7 |
| 20260906133526 | 34 | 199 | 4.8 | 11.3 | 0.00 | 0.00 | 0.00 | 32 | 1016.7 |
| 20260906132030 | 34 | 259 | 4.8 | 11.3 | 0.00 | 0.00 | 0.00 | 32 | 1016.7 |
| 20260906130522 | 34 | 262 | 1.6 | 9.7 | 0.00 | 0.00 | 0.00 | 32 | 1016.8 |
| 20260906125023 | 34 | 281 | 3.2 | 9.7 | 0.00 | 0.00 | 0.00 | 32 | 1016.8 |
| 20260906123535 | 34 | 248 | 3.2 | 8.0 | 0.00 | 0.00 | 0.00 | 32 | 1016.9 |
| 20260906122029 | 34 | 247 | 3.2 | 11.3 | 0.00 | 0.00 | 0.00 | 33 | 1017.0 |
| 20260906120523 | 34 | 245 | 3.2 | 14.5 | 0.00 | 0.00 | 0.00 | 34 | 1017.0 |
| 20260906115023 | 33 | 221 | 6.4 | 11.3 | 0.00 | 0.00 | 0.00 | 35 | 1017.1 |
| 20260906112021 | 33 | 148 | 3.2 | 11.3 | 0.00 | 0.00 | 0.00 | 37 | 1017.0 |
| 20260906105021 | 33 | 272 | 6.4 | 11.3 | 0.00 | 0.00 | 0.00 | 38 | 1017.0 |
| 20260906103520 | 33 | 221 | 3.2 | 8.0 | 0.00 | 0.00 | 0.00 | 40 | 1017.0 |
| 20260906102035 | 33 | 223 | 3.2 | 6.4 | 0.00 | 0.00 | 0.00 | 38 | 1017.0 |
| 20260906100519 | 33 | 259 | 3.2 | 6.4 | 0.00 | 0.00 | 0.00 | 37 | 1017.2 |
| 20260906095019 | 33 | 257 | 1.6 | 6.4 | 0.00 | 0.00 | 0.00 | 38 | 1017.1 |
| 20260906093519 | 33 | 206 | 3.2 | 8.0 | 0.00 | 0.00 | 0.00 | 36 | 1017.3 |
| 20260906092015 | 32 | 268 | 3.2 | 8.0 | 0.00 | 0.00 | 0.00 | 39 | 1017.5 |
| 20260906090517 | 32 | 241 | 1.6 | 6.4 | 0.00 | 0.00 | 0.00 | 38 | 1017.5 |
| 20260906085021 | 31 | 262 | 1.6 | 9.7 | 0.00 | 0.00 | 0.00 | 41 | 1017.4 |
| 20260906083515 | 31 | 216 | 1.6 | 6.4 | 0.00 | 0.00 | 0.00 | 37 | 1017.5 |
| 20260906082036 | 32 | 345 | 0.0 | 9.7 | 0.00 | 0.00 | 0.00 | 31 | 1017.5 |
| 20260906080516 | 31 | 310 | 3.2 | 9.7 | 0.00 | 0.00 | 0.00 | 31 | 1017.5 |
| 20260906075017 | 31 | 0 | 1.6 | 6.4 | 0.00 | 0.00 | 0.00 | 33 | 1017.6 |
| 20260906073518 | 31 | 320 | 0.0 | 3.2 | 0.00 | 0.00 | 0.00 | 33 | 1017.5 |
| 20260906072017 | 30 | 285 | 1.6 | 6.4 | 0.00 | 0.00 | 0.00 | 34 | 1017.5 |
| 20260906070515 | 29 | 333 | 1.6 | 4.8 | 0.00 | 0.00 | 0.00 | 34 | 1017.3 |
| 20260906065021 | 29 | 309 | 0.0 | 4.8 | 0.00 | 0.00 | 0.00 | 35 | 1017.3 |
| 20260906063516 | 28 | 234 | 0.0 | 0.0 | 0.00 | 0.00 | 0.00 | 37 | 1017.0 |
| 20260906060515 | 27 | 286 | 0.0 | 0.0 | 0.00 | 0.00 | 0.00 | 39 | 1016.8 |
| 20260906053513 | 26 | 296 | 0.0 | 0.0 | 0.00 | 0.00 | 0.00 | 39 | 1016.7 |
| 20260906052012 | 26 | 118 | 0.0 | 0.0 | 0.00 | 0.00 | 0.00 | 39 | 1016.6 |
| 20260906045014 | 24 | 118 | 0.0 | 0.0 | 0.00 | 0.00 | 0.00 | 40 | 1016.6 |
| 20260906043513 | 24 | 138 | 0.0 | 0.0 | 0.00 | 0.00 | 0.00 | 40 | 1016.6 |
| 20260906042017 | 24 | 145 | 0.0 | 0.0 | 0.00 | 0.00 | 0.00 | 39 | 1016.2 |
| 20260906040511 | 24 | 145 | 0.0 | 0.0 | 0.00 | 0.00 | 0.00 | 39 | 1016.1 |
| 20260906033509 | 23 | 145 | 0.0 | 0.0 | 0.00 | 0.00 | 0.00 | 40 | 1015.9 |
| 20260906032011 | 24 | 145 | 0.0 | 0.0 | 0.00 | 0.00 | 0.00 | 39 | 1015.9 |
| 20260906030509 | 24 | 147 | 0.0 | 0.0 | 0.00 | 0.00 | 0.00 | 37 | 1015.9 |
| 20260906025009 | 25 | 148 | 0.0 | 0.0 | 0.00 | 0.00 | 0.00 | 36 | 1015.7 |
| 20260906023514 | 24 | 149 | 0.0 | 3.2 | 0.00 | 0.00 | 0.00 | 37 | 1015.5 |
| 20260906022011 | 24 | 158 | 0.0 | 3.2 | 0.00 | 0.00 | 0.00 | 37 | 1015.6 |
| 20260906020509 | 25 | 141 | 1.6 | 3.2 | 0.00 | 0.00 | 0.00 | 36 | 1015.5 |
| 20260906015016 | 25 | 159 | 1.6 | 4.8 | 0.00 | 0.00 | 0.00 | 35 | 1015.7 |
| 20260906013508 | 25 | 147 | 0.0 | 3.2 | 0.00 | 0.00 | 0.00 | 36 | 1015.8 |
| 20260906012006 | 25 | 149 | 0.0 | 0.0 | 0.00 | 0.00 | 0.00 | 37 | 1015.9 |
| 20260906010509 | 25 | 152 | 0.0 | 1.6 | 0.00 | 0.00 | 0.00 | 36 | 1016.0 |
| 20260906005005 | 25 | 171 | 0.0 | 3.2 | 0.00 | 0.00 | 0.00 | 36 | 1015.9 |
| 20260906003506 | 25 | 137 | 1.6 | 3.2 | 0.00 | 0.00 | 0.00 | 36 | 1016.0 |
| 20260906002008 | 25 | 147 | 1.6 | 3.2 | 0.00 | 0.00 | 0.00 | 37 | 1015.8 |
| 20260905235004 | 25 | 161 | 0.0 | 3.2 | 0.00 | 0.00 | 0.00 | 36 | 1016.0 |
| 20260905233509 | 25 | 149 | 3.2 | 4.8 | 0.00 | 0.00 | 0.00 | 37 | 1016.1 |
| 20260905230502 | 25 | 178 | 1.6 | 3.2 | 0.00 | 0.00 | 0.00 | 36 | 1016.5 |
| 20260905225002 | 25 | 148 | 0.0 | 0.0 | 0.00 | 0.00 | 0.00 | 35 | 1016.5 |
| 20260905223502 | 25 | 148 | 0.0 | 0.0 | 0.00 | 0.00 | 0.00 | 35 | 1016.5 |
| 20260905220501 | 26 | 172 | 0.0 | 3.2 | 0.00 | 0.00 | 0.00 | 34 | 1016.5 |
| 20260905215004 | 26 | 151 | 3.2 | 4.8 | 0.00 | 0.00 | 0.00 | 35 | 1016.5 |
| 20260905212005 | 26 | 175 | 0.0 | 0.0 | 0.00 | 0.00 | 0.00 | 35 | 1016.8 |
| 20260905210501 | 27 | 238 | 0.0 | 0.0 | 0.00 | 0.00 | 0.00 | 35 | 1016.7 |